INTELSAT 32E (IS-32E)

Last updated on Thu Oct 16 2025 00:02:48 GMT+0000 (Coordinated Universal Time)

1 41945U 17007B 25288.33422310 -.00000284 00000+0 00000+0 0 9994 2 41945 0.0276 94.0703 0000719 253.0943 114.1002 1.00269615 31773
UTC large
Height (km)
Speed (km/s)
/
Latitude / Longitude
Inclination (degrees)
Orbital Period (minutes)
Azimuth
Elevation
Range (km)
Doppler Factor

Next 0 passes for location: London (51.5072 / 0.1276)

Sorry there are no passes over London.